| time (UTC) | temp F | wind direction | speed MPH | gust MPH | rain 1hr in | rain 24hr in | rain mn in | humidity % | barometer mb |
| 20260505034704 | 50 | 12 | 3.0 | 8.0 | 0.00 | 0.00 | 0.00 | 93 | 1011.6 |
| 20260505033201 | 49 | 109 | 0.0 | 5.0 | 0.00 | 0.00 | 0.00 | 93 | 1011.6 |
| 20260505031658 | 50 | 99 | 0.0 | 5.0 | 0.00 | 0.00 | 0.00 | 92 | 1011.7 |
| 20260505030158 | 50 | 184 | 2.0 | 4.0 | 0.00 | 0.00 | 0.00 | 91 | 1012.0 |
| 20260505024656 | 50 | 170 | 3.0 | 3.0 | 0.00 | 0.00 | 0.00 | 91 | 1012.1 |
| 20260505023154 | 50 | 239 | 2.0 | 3.0 | 0.00 | 0.00 | 0.00 | 90 | 1011.7 |
| 20260505021650 | 50 | 270 | 1.0 | 5.0 | 0.00 | 0.00 | 0.00 | 89 | 1012.2 |
| 20260505020150 | 51 | 197 | 4.0 | 5.0 | 0.00 | 0.00 | 0.00 | 87 | 1012.2 |
| 20260505014647 | 51 | 201 | 6.0 | 6.0 | 0.00 | 0.00 | 0.00 | 85 | 1012.1 |
| 20260505013144 | 52 | 247 | 5.0 | 12.0 | 0.00 | 0.00 | 0.00 | 84 | 1011.8 |
| 20260505011641 | 52 | 282 | 6.0 | 10.0 | 0.00 | 0.00 | 0.00 | 83 | 1011.5 |
| 20260505010136 | 52 | 283 | 4.0 | 11.0 | 0.00 | 0.00 | 0.00 | 83 | 1011.2 |
| 20260505004632 | 53 | 209 | 7.0 | 10.0 | 0.00 | 0.00 | 0.00 | 82 | 1010.9 |
| 20260505003129 | 54 | 188 | 4.0 | 17.0 | 0.00 | 0.00 | 0.00 | 78 | 1010.7 |
| 20260505001626 | 54 | 220 | 6.0 | 12.0 | 0.00 | 0.00 | 0.00 | 77 | 1010.5 |
| 20260505000124 | 55 | 192 | 2.0 | 13.0 | 0.00 | 0.00 | 0.00 | 75 | 1010.4 |
| 20260504234620 | 55 | 189 | 5.0 | 9.0 | 0.00 | 0.00 | 0.00 | 73 | 1010.1 |
| 20260504233120 | 56 | 227 | 7.0 | 11.0 | 0.00 | 0.00 | 0.00 | 70 | 1010.0 |
| 20260504231618 | 57 | 200 | 7.0 | 15.0 | 0.00 | 0.00 | 0.00 | 68 | 1009.7 |
| 20260504230115 | 57 | 218 | 3.0 | 10.0 | 0.00 | 0.00 | 0.00 | 66 | 1009.8 |
| 20260504224612 | 58 | 246 | 13.0 | 19.0 | 0.00 | 0.00 | 0.00 | 63 | 1009.7 |
| 20260504223107 | 59 | 90 | 0.0 | 7.0 | 0.00 | 0.00 | 0.00 | 64 | 1009.6 |
| 20260504221605 | 61 | 134 | 0.0 | 9.0 | 0.00 | 0.00 | 0.00 | 58 | 1009.3 |
| 20260504220101 | 62 | 177 | 5.0 | 9.0 | 0.00 | 0.00 | 0.00 | 56 | 1009.3 |
| 20260504214556 | 61 | 232 | 4.0 | 14.0 | 0.00 | 0.00 | 0.00 | 55 | 1009.3 |
| 20260504213052 | 62 | 252 | 5.0 | 18.0 | 0.00 | 0.00 | 0.00 | 56 | 1009.3 |
| 20260504211548 | 63 | 175 | 0.0 | 18.0 | 0.00 | 0.00 | 0.00 | 55 | 1009.1 |
| 20260504210044 | 63 | 232 | 6.0 | 15.0 | 0.00 | 0.00 | 0.00 | 54 | 1009.1 |
| 20260504204544 | 65 | 197 | 7.0 | 9.0 | 0.00 | 0.00 | 0.00 | 53 | 1009.3 |
| 20260504203043 | 65 | 81 | 2.0 | 10.0 | 0.00 | 0.00 | 0.00 | 52 | 1008.8 |
| 20260504201539 | 65 | 324 | 2.0 | 12.0 | 0.00 | 0.00 | 0.00 | 52 | 1008.9 |
| 20260504200036 | 64 | 155 | 3.0 | 17.0 | 0.00 | 0.00 | 0.00 | 50 | 1008.9 |
| 20260504194531 | 67 | 212 | 8.0 | 13.0 | 0.00 | 0.00 | 0.00 | 44 | 1008.8 |
| 20260504193028 | 66 | 186 | 7.0 | 15.0 | 0.00 | 0.00 | 0.00 | 46 | 1008.9 |
| 20260504191527 | 65 | 213 | 8.0 | 15.0 | 0.00 | 0.00 | 0.00 | 45 | 1008.9 |
| 20260504190026 | 65 | 232 | 13.0 | 25.0 | 0.00 | 0.00 | 0.00 | 43 | 1009.0 |
| 20260504184521 | 66 | 241 | 12.0 | 16.0 | 0.00 | 0.00 | 0.00 | 41 | 1009.0 |
| 20260504183018 | 67 | 223 | 12.0 | 19.0 | 0.00 | 0.00 | 0.00 | 43 | 1009.0 |
| 20260504181515 | 66 | 200 | 4.0 | 15.0 | 0.00 | 0.00 | 0.00 | 44 | 1009.3 |
| 20260504180010 | 66 | 252 | 11.0 | 19.0 | 0.00 | 0.00 | 0.00 | 43 | 1009.4 |
| 20260504174508 | 67 | 252 | 7.0 | 14.0 | 0.00 | 0.00 | 0.00 | 39 | 1009.6 |
| 20260504173005 | 66 | 228 | 7.0 | 22.0 | 0.00 | 0.00 | 0.00 | 38 | 1009.4 |
| 20260504171500 | 66 | 289 | 7.0 | 16.0 | 0.00 | 0.00 | 0.00 | 38 | 1009.4 |
| 20260504081302 | 47 | 336 | 2.0 | 4.0 | 0.00 | 0.00 | 0.00 | 67 | 1011.1 |
| 20260504045721 | 45 | 201 | 2.0 | 3.0 | 0.00 | 0.00 | 0.00 | 65 | 1010.8 |
| 20260504044216 | 45 | 297 | 1.0 | 2.0 | 0.00 | 0.00 | 0.00 | 64 | 1011.2 |
| 20260504042713 | 46 | 331 | 1.0 | 5.0 | 0.00 | 0.00 | 0.00 | 62 | 1011.1 |
| 20260504041213 | 45 | 307 | 3.0 | 3.0 | 0.00 | 0.00 | 0.00 | 63 | 1011.0 |
| 20260504035709 | 45 | 319 | 0.0 | 3.0 | 0.00 | 0.00 | 0.00 | 64 | 1010.6 |